Tracking 29892 objects as of 21-Nov-2024
HD Live streaming from Space Station
objects crossing your sky now

SL-8 DEB

Track SL-8 DEB now!
10-day predictions


NORAD ID: 21180
Int'l Code: 1991-009AT
Perigee: 1,480.6 km
Apogee: 1,642.2 km
Inclination: 74.1 °
Period: 117.2 minutes
Semi major axis: 7932 km
RCS: 0.0664 m2 (small)
Launch date: February 12, 1991
Source: Commonwealth of Independent States (former USSR) (CIS)
Launch site: PLESETSK MISSILE AND SPACE COMPLEX (PKMTR)

Note: This is SATELLITE DEBRIS
Your satellite tracking list
Your tracking list is empty




NASA's NSSDC Master Catalog

Two Line Element Set (TLE):
1 21180U 91009AT  24325.44023924  .00000012  00000-0  22007-3 0  9992
2 21180  74.0628 332.7778 0101859  60.2166  94.0911 12.28831190510211
Source of the keplerian elements: AFSPC